FW5962 Weather Reports


time (UTC)temp
C
wind
direction
speed
KPH
gust
KPH
rain 1hr
cm
rain 24hr
cm
rain mn
cm
humidity
%
barometer
mb
20260504002543 23 0 0.0 0.0 0.00 0.00 0.00 47 1010.3
20260504002048 23 0 0.0 0.0 0.00 0.00 0.00 48 1010.2
20260504001548 23 0 0.0 0.0 0.00 0.00 0.00 48 1010.2
20260504001042 23 0 0.0 0.0 0.00 0.00 0.00 47 1010.3
20260504000543 23 0 0.0 0.0 0.00 0.00 0.00 46 1010.2
20260504000051 23 0 0.0 0.0 0.00 0.00 0.00 46 1010.3
20260503235542 23 0 0.0 0.0 0.00 0.00 0.00 49 1010.4
20260503235046 23 0 0.0 1.6 0.00 0.00 0.00 48 1010.4
20260503234549 23 0 0.0 1.6 0.00 0.00 0.00 47 1010.5
20260503234041 23 0 0.0 0.0 0.00 0.00 0.00 46 1010.5
20260503233541 23 0 0.0 0.0 0.00 0.00 0.00 48 1010.5
20260503233050 23 0 0.0 0.0 0.00 0.00 0.00 47 1010.7
20260503232540 23 0 0.0 0.0 0.00 0.00 0.00 48 1010.8
20260503232040 23 0 0.0 0.0 0.00 0.00 0.00 47 1010.9
20260503231551 23 0 0.0 0.0 0.00 0.00 0.00 47 1010.9
20260503231040 23 0 0.0 0.0 0.00 0.00 0.00 47 1011.0
20260503230541 24 0 0.0 0.0 0.00 0.00 0.00 47 1011.0
20260503230052 23 0 0.0 0.0 0.00 0.00 0.00 47 1011.1
20260503225541 23 0 0.0 0.0 0.00 0.00 0.00 48 1011.2
20260503225040 24 0 0.0 0.0 0.00 0.00 0.00 47 1011.2
20260503224549 24 0 0.0 0.0 0.00 0.00 0.00 46 1011.3
20260503224041 24 0 0.0 0.0 0.00 0.00 0.00 46 1011.3
20260503223541 24 0 0.0 0.0 0.00 0.00 0.00 48 1011.3
20260503223049 24 0 0.0 0.0 0.00 0.00 0.00 48 1011.4
20260503222541 24 0 0.0 1.6 0.00 0.00 0.00 48 1011.5
20260503222042 24 0 0.0 1.6 0.00 0.00 0.00 51 1011.6
20260503221554 23 0 0.0 1.6 0.00 0.00 0.00 48 1011.5
20260503221043 23 0 0.0 0.0 0.00 0.00 0.00 50 1011.6
20260503220541 23 0 0.0 1.6 0.00 0.00 0.00 50 1011.7
20260503220051 23 0 0.0 1.6 0.00 0.00 0.00 50 1011.7
20260503215541 23 0 0.0 1.6 0.00 0.00 0.00 50 1011.8
20260503215041 23 0 0.0 1.6 0.00 0.00 0.00 49 1011.9
20260503214545 23 0 0.0 1.6 0.00 0.00 0.00 51 1011.9
20260503214040 23 0 0.0 1.6 0.00 0.00 0.00 50 1012.0
20260503213540 22 0 0.0 0.0 0.00 0.00 0.00 52 1012.0
20260503213053 22 0 0.0 0.0 0.00 0.00 0.00 54 1012.0
20260503212540 22 0 0.0 0.0 0.00 0.00 0.00 53 1011.9
20260503212040 22 0 0.0 1.6 0.00 0.00 0.00 51 1012.1
20260503211553 22 0 0.0 1.6 0.00 0.00 0.00 51 1012.0
20260503211042 22 0 0.0 0.0 0.00 0.00 0.00 52 1012.0
20260503210540 22 0 0.0 0.0 0.00 0.00 0.00 52 1012.1
20260503210047 22 0 0.0 0.0 0.00 0.00 0.00 54 1012.2
20260503205540 22 0 0.0 0.0 0.00 0.00 0.00 55 1012.3
20260503205144 22 0 0.0 0.0 0.00 0.00 0.00 55 1012.4
20260503205044 22 0 0.0 0.0 0.00 0.00 0.00 55 1012.4
20260503204600 21 0 0.0 0.0 0.00 0.00 0.00 57 1012.4
20260503204043 21 0 0.0 0.0 0.00 0.00 0.00 59 1012.6
20260503203542 21 0 0.0 1.6 0.00 0.00 0.00 58 1012.7
20260503203057 21 0 0.0 1.6 0.00 0.00 0.00 60 1012.6
20260503202550 21 0 0.0 1.6 0.00 0.00 0.00 58 1012.7
20260503202042 21 0 0.0 1.6 0.00 0.00 0.00 59 1012.7
20260503201553 20 0 0.0 1.6 0.00 0.00 0.00 60 1012.7
20260503201042 20 0 0.0 0.0 0.00 0.00 0.00 61 1012.8
20260503200542 20 0 0.0 0.0 0.00 0.00 0.00 60 1012.9
20260503200053 20 0 0.0 0.0 0.00 0.00 0.00 62 1012.8
20260503195541 20 0 0.0 0.0 0.00 0.00 0.00 63 1012.9
20260503195041 20 0 0.0 0.0 0.00 0.00 0.00 62 1012.9
20260503194556 20 0 0.0 0.0 0.00 0.00 0.00 61 1012.9
20260503194042 20 0 0.0 0.0 0.00 0.00 0.00 63 1012.9
20260503193543 20 0 0.0 0.0 0.00 0.00 0.00 65 1013.1
20260503193054 19 0 0.0 0.0 0.00 0.00 0.00 64 1013.2
20260503192542 19 0 0.0 0.0 0.00 0.00 0.00 64 1013.3
20260503192042 19 0 0.0 0.0 0.00 0.00 0.00 64 1013.3
20260503191553 19 0 0.0 0.0 0.00 0.00 0.00 64 1013.3
20260503191043 19 0 0.0 0.0 0.00 0.00 0.00 65 1013.3
20260503190543 18 0 0.0 0.0 0.00 0.00 0.00 66 1013.3
20260503190052 18 0 0.0 0.0 0.00 0.00 0.00 66 1013.4
20260503185542 18 0 0.0 0.0 0.00 0.00 0.00 67 1013.4
20260503185043 18 0 0.0 0.0 0.00 0.00 0.00 68 1013.5
20260503184601 18 0 0.0 0.0 0.00 0.00 0.00 68 1013.5
20260503184042 18 0 0.0 0.0 0.00 0.00 0.00 69 1013.5
20260503183541 18 0 0.0 0.0 0.00 0.00 0.00 69 1013.6
20260503183048 18 0 0.0 0.0 0.00 0.00 0.00 69 1013.6
20260503182548 18 0 0.0 0.0 0.00 0.00 0.00 69 1013.6
20260503182046 17 0 0.0 0.0 0.00 0.00 0.00 69 1013.7
20260503181548 18 0 0.0 0.0 0.00 0.00 0.00 69 1013.6
20260503181043 17 0 0.0 0.0 0.00 0.00 0.00 69 1013.7
20260503180544 17 0 0.0 0.0 0.00 0.00 0.00 71 1013.7
20260503180053 17 0 0.0 0.0 0.00 0.00 0.00 70 1013.7
20260503175543 17 0 0.0 0.0 0.00 0.00 0.00 70 1013.7
20260503175042 17 0 0.0 0.0 0.00 0.00 0.00 70 1013.7
20260503174612 17 0 0.0 0.0 0.00 0.00 0.00 71 1013.8
20260503174042 18 0 0.0 0.0 0.00 0.00 0.00 70 1013.7
20260503173542 18 0 0.0 0.0 0.00 0.00 0.00 69 1013.8
20260503173050 18 0 0.0 0.0 0.00 0.00 0.00 70 1013.7
20260503172543 18 0 0.0 0.0 0.00 0.00 0.00 70 1013.8
20260503172042 18 0 0.0 0.0 0.00 0.00 0.00 70 1013.9
20260503171551 18 0 0.0 0.0 0.00 0.00 0.00 70 1013.9
20260503171042 18 0 0.0 0.0 0.00 0.00 0.00 70 1013.9
20260503170542 18 0 0.0 0.0 0.00 0.00 0.00 69 1014.0
20260503150542 11 0 0.0 0.0 0.00 0.00 0.00 87 1014.1
20260503131045 9 0 0.0 0.0 0.00 0.00 0.00 88 1013.6
20260503130542 9 0 0.0 0.0 0.00 0.00 0.00 88 1013.7
20260503110542 11 0 0.0 0.0 0.00 0.00 0.00 83 1014.2
20260503100106 11 0 0.0 0.0 0.00 0.00 0.00 82 1014.4
20260503081552 12 0 0.0 0.0 0.00 0.00 0.00 77 1014.5
20260503081041 12 0 0.0 0.0 0.00 0.00 0.00 77 1014.5
20260503080541 13 0 0.0 0.0 0.00 0.00 0.00 76 1014.5
20260503072542 13 0 0.0 1.6 0.00 0.00 0.00 74 1014.4
20260503072046 13 0 0.0 1.6 0.00 0.00 0.00 73 1014.3
20260503071552 13 0 0.0 4.8 0.00 0.00 0.00 73 1014.3
20260503071041 13 0 0.0 4.8 0.00 0.00 0.00 72 1014.3
20260503070541 13 103 0.0 4.8 0.00 0.00 0.00 72 1014.2
20260503055041 17 0 0.0 4.8 0.00 0.00 0.00 59 1013.6
20260503054549 17 0 0.0 4.8 0.00 0.00 0.00 58 1013.6
20260503054042 17 0 0.0 4.8 0.00 0.00 0.00 58 1013.6
20260503053541 17 0 0.0 0.0 0.00 0.00 0.00 57 1013.6
20260503053055 17 0 0.0 0.0 0.00 0.00 0.00 56 1013.6
20260503052542 18 0 0.0 3.2 0.00 0.00 0.00 56 1013.6
20260503052042 18 0 0.0 3.2 0.00 0.00 0.00 56 1013.5
20260503051549 18 0 0.0 3.2 0.00 0.00 0.00 55 1013.5
20260503051043 18 0 0.0 6.4 0.00 0.00 0.00 54 1013.6
20260503050542 18 0 0.0 6.4 0.00 0.00 0.00 54 1013.6
20260503050052 18 0 0.0 6.4 0.00 0.00 0.00 54 1013.5
20260503045542 18 0 0.0 1.6 0.00 0.00 0.00 53 1013.6
20260503045041 18 0 0.0 0.0 0.00 0.00 0.00 53 1013.6
20260503044554 18 0 0.0 0.0 0.00 0.00 0.00 53 1013.5
20260503044042 18 0 0.0 0.0 0.00 0.00 0.00 53 1013.5
20260503043542 19 0 0.0 0.0 0.00 0.00 0.00 53 1013.5
20260503043054 19 0 0.0 0.0 0.00 0.00 0.00 51 1013.4
20260503042542 19 0 0.0 0.0 0.00 0.00 0.00 51 1013.3
20260503042042 19 0 0.0 0.0 0.00 0.00 0.00 50 1013.3
20260503041554 19 0 0.0 0.0 0.00 0.00 0.00 50 1013.3
20260503041041 19 0 0.0 0.0 0.00 0.00 0.00 50 1013.2
20260503040543 19 0 0.0 0.0 0.00 0.00 0.00 50 1013.2
20260503040047 19 0 0.0 0.0 0.00 0.00 0.00 50 1013.2
20260503035542 19 0 0.0 0.0 0.00 0.00 0.00 51 1013.1
20260503035042 19 0 0.0 0.0 0.00 0.00 0.00 51 1013.1
20260503034603 19 0 0.0 0.0 0.00 0.00 0.00 51 1012.9
20260503034044 20 0 0.0 0.0 0.00 0.00 0.00 50 1012.9
20260503033545 20 0 0.0 0.0 0.00 0.00 0.00 51 1012.8
20260503033052 20 0 0.0 0.0 0.00 0.00 0.00 51 1012.8
20260503032542 20 0 0.0 0.0 0.00 0.00 0.00 50 1012.8
20260503032044 20 0 0.0 0.0 0.00 0.00 0.00 50 1012.8
20260503031552 20 0 0.0 0.0 0.00 0.00 0.00 50 1012.7
20260503031042 20 0 0.0 0.0 0.00 0.00 0.00 51 1012.8
20260503030542 21 0 0.0 0.0 0.00 0.00 0.00 49 1012.8
20260503030056 21 0 0.0 0.0 0.00 0.00 0.00 47 1012.8
20260503025542 21 0 0.0 1.6 0.00 0.00 0.00 46 1012.7
20260503025042 21 0 0.0 1.6 0.00 0.00 0.00 46 1012.8
20260503024552 22 0 0.0 0.0 0.00 0.00 0.00 45 1012.7
20260503024042 22 0 0.0 0.0 0.00 0.00 0.00 45 1012.6
20260503023541 22 0 0.0 0.0 0.00 0.00 0.00 45 1012.6
20260503023053 22 0 0.0 0.0 0.00 0.00 0.00 45 1012.5
20260503022542 22 0 0.0 0.0 0.00 0.00 0.00 44 1012.6
20260503022042 22 0 0.0 0.0 0.00 0.00 0.00 43 1012.5
20260503021557 22 0 0.0 0.0 0.00 0.00 0.00 44 1012.4
20260503021042 22 0 0.0 1.6 0.00 0.00 0.00 42 1012.5
20260503020542 23 0 0.0 1.6 0.00 0.00 0.00 42 1012.4
20260503020045 23 0 0.0 0.0 0.00 0.00 0.00 42 1012.6
20260503015541 23 0 0.0 0.0 0.00 0.00 0.00 41 1012.7
20260503015043 23 0 0.0 1.6 0.00 0.00 0.00 42 1012.9
20260503014555 24 0 0.0 1.6 0.00 0.00 0.00 42 1012.8
20260503014042 24 0 0.0 0.0 0.00 0.00 0.00 43 1012.8
20260503013542 24 0 0.0 0.0 0.00 0.00 0.00 43 1012.8
20260503013050 24 0 0.0 0.0 0.00 0.00 0.00 43 1012.7
20260503012542 24 0 0.0 0.0 0.00 0.00 0.00 42 1012.8
20260503012041 24 0 0.0 1.6 0.00 0.00 0.00 43 1012.9
20260503011549 24 0 0.0 1.6 0.00 0.00 0.00 43 1012.9
20260503011042 25 0 0.0 1.6 0.00 0.00 0.00 44 1012.8
20260503010542 25 0 0.0 1.6 0.00 0.00 0.00 42 1013.0
20260503010051 25 0 0.0 1.6 0.00 0.00 0.00 43 1013.0
20260503005543 25 0 0.0 0.0 0.00 0.00 0.00 43 1013.0
20260503005043 25 0 0.0 0.0 0.00 0.00 0.00 46 1013.0
20260503004550 25 0 0.0 1.6 0.00 0.00 0.00 45 1013.1
20260503004046 25 0 0.0 1.6 0.00 0.00 0.00 44 1013.1
20260503003542 25 0 0.0 0.0 0.00 0.00 0.00 44 1013.1
20260503003100 25 0 0.0 0.0 0.00 0.00 0.00 46 1013.1